SCP
0 -0 0 0 0 0 0 -0 0 0 0 0 0 0 0 0 0 0 0 0 0 0 0 0 0 0 0 0 0 0 0 0 0 0 0 0 0 0 0 0 -0 0 0
-0 -0 -0 0 0 -0 -0 0 0 0 0 0 0 0 0 0 0 0 0 0 0 0 0 0 0 0 0 0 0 0 0 0 0 0 0 0 0 0 0 0 0 0 0
-0 -0 0 0 0 -0 0 0 0 0 0 0 0 0 0 0 0 0 0 0 0 0 0 0 0 0 0 0 0 0 0 0 0 0 0 0 0 0 0 0 0 0 0
-0 -0 0 0 0 0 0 0 0 0 0 0 0 0 0 0 0 0 0 0 0 0 0 0 0 0 0 0 0 0 0 0 0 0 0 0 0 0 0 0 0 0 0
-0 0 0 0 0 0 0 0 0 0 0 0 0 0 0 0 0 0 0 0 0 0 0 0 0 0 0 0 0 0 0 0 0 0 0 0 0 0 0 0 0 0 0
-0 -0 0 0 0 0 0 0 0 0 0 0 0 0 0 0 0 0 0 0 0 0 0 0 0 0 0 0 0 0 0 0 0 0 0 0 0 0 0 0 0 0 0
0 0 0 0 0 0 0 0 0 0 0 0 0 0 0 0 0 0 0 0 0 0 0 0 0 0 0 0 0 0 0 0 0 0 0 0 0 0 0 0 0 0 0
-0 -0 -0 0 0 0 0 0 0 0 0 0 0 0 0 0 0 0 0 0 0 0 0 0 0 0 0 0 0 0 0 0 0 0 0 0 0 0 0 0 0 0 0
-0 -0 -0 0 0 0 0 0 0 0 0 0 0 0 0 0 0 0 0 0 0 0 0 0 0 0 0 0 0 0 0 0 0 0 0 0 0 0 0 0 0 0 0
-0 0 0 0 0 0 0 0 0 0 0 0 0 0 0 0 0 0 0 0 0 0 0 0 0 0 0 0 0 0 0 0 0 0 0 0 0 0 0 0 0 0 0
0 0 0 0 0 0 0 0 0 0 0 0 0 0 0 0 0 0 0 0 0 0 0 0 0 0 0 0 0 0 0 0 0 0 0 0 0 0 0 0 0 0 0
0 0 0 0 0 0 0 0 0 0 0 0 0 0 0 0 0 0 0 0 0 0 0 0 0 0 0 0 0 0 0 0 0 0 0 0 0 0 0 0 0 0 0
0 0 0 0 0 0 0 0 0 0 0 0 0 0 0 0 0 0 0 0 0 0 0 0 0 0 0 0 0 0 0 0 0 0 0 0 0 0 0 0 0 0 0
0 0 0 0 0 0 0 0 0 0 0 0 0 0 0 0 0 0 0 0 0 0 0 0 0 0 0 0 0 0 0 0 0 0 0 0 0 0 0 0 0 0 0
0 0 0 0 0 0 0 0 0 0 0 0 0 0 0 0 0 0 0 0 0 0 0 0 0 0 0 0 0 0 0 0 0 0 0 0 0 0 0 0 0 0 0
0 0 0 0 0 0 0 0 0 0 0 0 0 0 0 0 0 0 0 0 0 0 0 0 0 0 0 0 0 0 0 0 0 0 0 0 0 0 0 0 0 0 0
0 0 0 0 0 0 0 0 0 0 0 0 0 0 0 0 0 0 0 0 0 0 0 0 0 0 0 0 0 0 0 0 0 0 0 0 0 0 0 0 0 0 0
0 0 0 0 0 0 0 0 0 0 0 0 0 0 0 0 0 0 0 0 0 0 0 0 0 0 0 0 0 0 0 0 0 0 0 0 0 0 0 0 0 0 0
0 0 0 0 0 0 0 0 0 0 0 0 0 0 0 0 0 0 0 0 0 0 0 0 0 0 0 0 0 0 0 0 0 0 0 0 0 0 0 0 0 0 0
0 0 0 0 0 0 0 0 0 0 0 0 0 0 0 0 0 0 0 0 0 0 0 0 0 0 0 0 0 0 0 0 0 0 0 0 0 0 0 0 0 0 0
0 0 0 0 0 0 0 0 0 0 0 0 0 0 0 0 0 0 0 0 0 0 0 0 0 0 0 0 0 0 0 0 0 0 0 0 0 0 0 0 0 0 0
0 0 0 0 0 0 0 0 0 0 0 0 0 0 0 0 0 0 0 0 0 0 0 0 0 0 0 0 0 0 0 0 0 0 0 0 0 0 0 0 0 0 0
0 0 0 0 0 0 0 0 0 0 0 0 0 0 0 0 0 0 0 0 0 0 0 0 0 0 0 0 0 0 0 0 0 0 0 0 0 0 0 0 0 0 0
0 0 0 0 0 0 0 0 0 0 0 0 0 0 0 0 0 0 0 0 0 0 0 0 0 0 0 0 0 0 0 0 0 0 0 0 0 0 0 0 0 0 0
0 0 0 0 0 0 0 0 0 0 0 0 0 0 0 0 0 0 0 0 0 0 0 0 0 0 0 0 0 0 0 0 0 0 0 0 0 0 0 0 0 0 0
0 0 0 0 0 0 0 0 0 0 0 0 0 0 0 0 0 0 0 0 0 0 0 0 0 0 0 0 0 0 0 0 0 0 0 0 0 0 0 0 0 0 0
Wind_Speed_500mb
38 36 31 25 23 20 15 12 8 10 11 11 13 17 17 7 3 3 7 8 9 8 3 10 16 16 16 12 14 17 18 20 21 22 25 26 23 25 24 26 26 30 29
34 31 25 22 22 20 11 10 8 8 9 5 6 6 10 12 6 4 2 10 13 12 13 15 15 18 18 21 25 24 23 22 22 22 22 22 20 22 23 24 24 24 25
29 29 28 27 21 18 21 17 12 6 5 8 5 6 7 10 15 8 8 10 9 13 15 14 16 22 22 25 30 33 32 29 27 23 20 17 17 20 23 24 25 28 28
31 28 24 23 24 31 29 23 20 18 14 12 10 13 12 9 7 9 9 15 17 17 18 19 18 20 23 25 30 33 35 34 31 25 20 17 17 20 22 23 27 29 29
33 30 36 38 38 39 35 30 28 26 21 20 25 24 23 21 12 12 14 15 24 24 25 26 23 24 25 25 23 26 29 31 30 26 27 25 19 20 23 26 28 31 31
35 37 36 37 40 41 40 36 34 28 31 35 34 32 29 30 24 20 19 15 23 31 32 31 34 36 33 33 29 30 33 31 29 31 29 29 29 28 26 28 29 30 30
42 45 46 43 41 44 43 38 35 37 43 42 37 36 36 32 31 30 28 24 25 24 29 32 35 37 36 36 35 38 37 34 34 30 35 37 36 30 24 26 30 33 36
44 46 44 45 43 50 49 45 42 44 46 48 50 47 37 43 46 49 39 30 29 30 33 34 39 41 47 40 40 44 37 36 35 39 41 46 46 43 37 31 34 38 42
54 50 51 46 50 52 58 49 45 45 43 44 56 48 23 25 35 43 33 29 34 40 33 40 41 45 47 46 43 41 39 41 44 46 50 48 47 49 47 39 39 41 43
57 52 56 57 53 56 54 51 54 52 48 49 49 55 48 14 15 17 22 27 34 39 40 44 43 42 47 48 48 47 50 54 53 56 51 49 51 54 56 49 45 44 45
62 60 62 59 62 63 56 57 57 56 61 53 54 63 62 52 42 34 30 30 26 32 38 39 40 45 50 57 60 58 57 54 60 53 50 52 54 56 59 61 56 54 47
53 55 58 62 68 72 64 59 57 60 61 61 55 50 48 55 47 41 34 39 47 45 27 28 39 38 48 60 64 60 60 66 60 54 57 58 58 58 66 63 58 51 46
63 56 57 60 59 68 66 59 55 55 61 60 48 52 49 56 55 45 44 46 44 47 51 50 54 38 38 44 51 56 62 60 57 58 61 62 58 61 66 69 64 57 51
64 61 60 56 41 42 39 41 53 57 62 44 33 43 48 54 49 45 43 42 44 49 54 58 54 50 47 44 47 52 58 59 60 57 59 60 59 61 66 70 65 63 58
54 57 55 43 31 25 29 38 52 57 38 32 42 48 49 43 42 41 39 44 42 58 64 64 63 50 49 44 47 48 53 56 60 61 58 58 61 66 62 63 62 60 56
57 63 50 38 34 33 41 39 47 39 37 41 46 46 35 35 36 38 35 33 41 54 66 64 61 54 48 54 59 64 65 66 65 64 63 63 63 64 57 57 51 53 54
48 49 43 38 37 38 38 44 36 37 42 47 44 35 28 30 31 30 34 40 45 53 62 72 70 64 65 65 66 63 70 76 78 77 72 64 68 62 59 51 50 53 54
47 37 36 38 35 38 39 36 37 42 43 35 25 23 24 28 31 34 37 44 49 52 61 76 77 77 75 70 71 73 78 79 73 63 59 64 57 63 51 50 52 52 47
29 34 36 36 35 39 39 35 35 32 27 23 20 24 29 34 36 38 42 48 51 55 61 70 82 81 80 76 72 69 69 67 65 76 55 64 58 50 52 52 56 47 44
28 30 31 32 33 35 30 30 27 24 22 19 23 24 27 28 25 27 34 43 49 56 61 69 78 84 87 87 85 79 76 78 80 74 66 61 69 56 56 61 53 48 49
27 26 27 31 29 27 26 25 23 21 21 21 21 23 24 24 28 34 40 47 50 56 60 65 75 79 84 83 81 81 83 82 73 70 77 68 52 59 63 57 54 51 51
28 29 27 25 24 23 23 21 21 21 21 22 24 22 27 33 39 44 49 56 60 64 69 68 73 71 76 69 66 73 77 79 72 70 78 66 41 56 57 58 56 58 41
32 29 25 24 25 23 21 20 18 16 14 17 23 29 33 39 46 54 61 66 70 72 77 84 89 89 84 78 71 68 72 75 73 64 59 55 45 55 54 56 44 34 39
31 26 23 22 27 26 22 15 15 16 18 23 29 35 41 44 47 56 64 69 71 72 72 73 74 80 81 81 78 68 63 70 72 67 53 49 51 54 50 43 32 37 45
25 25 26 26 20 21 19 18 20 22 26 30 32 30 35 40 45 52 61 69 74 74 67 64 63 66 69 72 67 64 70 61 66 66 51 55 55 50 42 36 34 43 46
30 32 30 25 25 24 25 28 28 29 28 27 29 32 37 42 44 47 54 61 68 70 70 71 66 64 61 51 52 46 52 56 65 53 47 53 54 39 35 38 40 40 31
Wind_Direction_500mb
163 164 164 165 171 169 176 142 148 157 161 139 123 124 127 176 170 78 16 22 10 341 343 339 343 341 344 354 349 343 340 340 344 349 348 350 353 0 6 6 5 359 357
174 177 169 185 193 193 192 205 203 181 156 126 136 126 131 159 220 210 341 11 1 338 307 297 310 316 322 325 321 321 322 321 326 335 336 340 343 344 345 343 345 348 349
189 186 196 186 192 205 228 224 208 209 252 270 214 175 194 169 199 249 320 318 298 300 298 279 291 291 292 302 304 302 305 307 311 321 330 338 340 332 331 331 332 334 336
195 202 205 204 208 217 238 226 219 232 240 256 265 267 255 262 217 231 290 301 266 273 272 275 276 276 285 290 293 288 291 297 298 304 309 326 327 319 322 322 322 324 327
205 207 215 212 219 227 236 231 228 233 222 224 243 261 266 260 263 270 293 296 262 270 267 271 267 276 282 288 286 286 288 293 293 290 293 305 312 314 314 315 315 317 319
228 224 227 222 223 235 243 238 237 230 221 224 240 251 247 263 282 275 283 279 264 264 263 268 275 275 277 277 276 271 289 293 291 293 292 297 296 299 310 310 312 312 308
229 233 230 227 235 243 244 247 242 236 229 226 226 236 238 254 271 266 266 269 277 274 278 279 282 287 285 270 265 274 294 294 295 297 305 301 305 305 305 302 300 301 302
239 237 226 237 243 244 245 244 244 249 243 232 232 234 230 244 251 256 258 270 271 260 253 269 278 280 281 279 272 286 291 286 289 298 303 305 306 309 307 304 301 299 298
237 235 232 234 243 244 244 245 250 251 249 247 236 239 237 233 230 234 241 252 258 252 262 269 268 276 277 275 277 280 278 283 290 295 300 304 304 309 308 306 302 302 302
237 236 240 239 240 245 249 257 275 257 260 252 246 238 240 259 199 202 240 245 243 249 254 263 277 280 272 268 264 267 275 281 285 294 297 302 306 309 311 306 305 305 304
241 245 244 238 240 241 244 264 266 256 258 247 262 238 236 248 254 263 271 259 234 246 261 265 274 273 265 258 261 263 271 272 286 289 291 299 303 313 318 308 306 303 304
240 246 247 250 249 245 248 257 258 260 261 250 254 228 242 248 246 252 254 261 257 269 249 252 264 267 258 254 259 269 272 285 286 287 293 296 301 312 319 314 307 306 301
240 245 249 251 250 248 250 255 256 260 253 250 244 227 241 244 244 256 270 262 268 268 262 258 263 275 276 270 274 274 281 278 275 280 284 289 297 307 315 319 313 311 305
245 250 254 254 253 253 248 256 253 255 258 256 244 243 248 254 254 260 269 265 277 272 269 271 273 269 266 276 283 284 275 275 275 275 281 288 294 304 311 318 317 314 310
247 249 254 246 236 248 254 262 254 257 256 247 243 246 256 258 261 266 265 270 261 272 278 280 287 284 265 268 279 278 278 279 276 279 281 288 295 300 306 315 314 313 312
243 247 257 250 248 256 243 263 254 249 233 238 247 251 263 271 268 274 272 268 263 274 281 283 285 288 279 274 273 280 281 281 280 280 281 284 289 295 304 307 307 305 312
236 235 243 246 239 244 249 256 246 230 235 238 243 252 257 262 264 268 262 261 267 270 277 282 283 280 278 280 283 275 273 278 278 274 272 275 284 292 294 296 295 301 310
230 214 226 233 235 241 245 244 235 229 232 238 246 248 256 265 264 270 272 272 276 277 280 283 281 281 281 284 283 278 275 275 272 273 273 275 278 283 285 280 287 297 302
208 216 230 236 245 243 235 236 232 234 234 226 236 253 264 268 272 277 275 279 284 283 280 280 282 284 285 287 285 282 279 273 272 269 261 269 278 276 271 273 288 293 287
224 226 234 244 236 229 224 222 220 218 211 228 246 267 278 290 293 291 284 283 289 290 287 283 282 284 285 285 285 285 279 277 278 270 261 254 278 267 267 277 284 278 283
230 235 231 221 209 199 199 202 201 208 230 248 259 280 269 267 273 281 294 290 285 283 284 288 288 290 289 289 287 288 284 280 279 262 263 268 253 265 271 276 280 274 287
213 208 195 187 183 183 186 194 212 227 238 249 260 264 273 275 271 268 269 270 278 286 286 288 289 291 289 294 290 291 288 285 281 278 268 268 267 260 265 276 275 284 277
184 182 178 175 167 182 197 210 224 225 234 254 263 272 279 281 284 285 284 284 282 279 278 284 288 290 292 289 291 287 286 287 283 278 268 259 258 256 270 276 278 275 277
169 171 173 174 178 183 191 202 223 239 262 278 282 285 288 291 294 297 300 298 298 297 297 298 294 291 288 286 281 287 286 287 281 273 267 252 256 265 275 277 273 274 281
167 165 160 176 178 184 203 227 250 267 277 284 286 290 298 304 305 306 308 308 307 309 311 311 309 304 297 295 286 281 276 279 261 262 250 247 261 268 277 273 271 272 282
149 161 170 176 183 208 224 248 260 273 286 291 299 306 310 312 315 318 316 315 315 318 320 316 316 316 315 304 299 284 271 270 256 253 243 250 260 265 269 274 272 275 265
Wind_Speed_850mb
38 36 31 25 23 20 15 12 8 10 11 11 13 17 17 7 3 3 7 8 9 8 3 10 16 16 16 12 14 17 18 20 21 22 25 26 23 25 24 26 26 30 29
34 31 25 22 22 20 11 10 8 8 9 5 6 6 10 12 6 4 2 10 13 12 13 15 15 18 18 21 25 24 23 22 22 22 22 22 20 22 23 24 24 24 25
29 29 28 27 21 18 21 17 12 6 5 8 5 6 7 10 15 8 8 10 9 13 15 14 16 22 22 25 30 33 32 29 27 23 20 17 17 20 23 24 25 28 28
31 28 24 23 24 31 29 23 20 18 14 12 10 13 12 9 7 9 9 15 17 17 18 19 18 20 23 25 30 33 35 34 31 25 20 17 17 20 22 23 27 29 29
33 30 36 38 38 39 35 30 28 26 21 20 25 24 23 21 12 12 14 15 24 24 25 26 23 24 25 25 23 26 29 31 30 26 27 25 19 20 23 26 28 31 31
35 37 36 37 40 41 40 36 34 28 31 35 34 32 29 30 24 20 19 15 23 31 32 31 34 36 33 33 29 30 33 31 29 31 29 29 29 28 26 28 29 30 30
42 45 46 43 41 44 43 38 35 37 43 42 37 36 36 32 31 30 28 24 25 24 29 32 35 37 36 36 35 38 37 34 34 30 35 37 36 30 24 26 30 33 36
44 46 44 45 43 50 49 45 42 44 46 48 50 47 37 43 46 49 39 30 29 30 33 34 39 41 47 40 40 44 37 36 35 39 41 46 46 43 37 31 34 38 42
54 50 51 46 50 52 58 49 45 45 43 44 56 48 23 25 35 43 33 29 34 40 33 40 41 45 47 46 43 41 39 41 44 46 50 48 47 49 47 39 39 41 43
57 52 56 57 53 56 54 51 54 52 48 49 49 55 48 14 15 17 22 27 34 39 40 44 43 42 47 48 48 47 50 54 53 56 51 49 51 54 56 49 45 44 45
62 60 62 59 62 63 56 57 57 56 61 53 54 63 62 52 42 34 30 30 26 32 38 39 40 45 50 57 60 58 57 54 60 53 50 52 54 56 59 61 56 54 47
53 55 58 62 68 72 64 59 57 60 61 61 55 50 48 55 47 41 34 39 47 45 27 28 39 38 48 60 64 60 60 66 60 54 57 58 58 58 66 63 58 51 46
63 56 57 60 59 68 66 59 55 55 61 60 48 52 49 56 55 45 44 46 44 47 51 50 54 38 38 44 51 56 62 60 57 58 61 62 58 61 66 69 64 57 51
64 61 60 56 41 42 39 41 53 57 62 44 33 43 48 54 49 45 43 42 44 49 54 58 54 50 47 44 47 52 58 59 60 57 59 60 59 61 66 70 65 63 58
54 57 55 43 31 25 29 38 52 57 38 32 42 48 49 43 42 41 39 44 42 58 64 64 63 50 49 44 47 48 53 56 60 61 58 58 61 66 62 63 62 60 56
57 63 50 38 34 33 41 39 47 39 37 41 46 46 35 35 36 38 35 33 41 54 66 64 61 54 48 54 59 64 65 66 65 64 63 63 63 64 57 57 51 53 54
48 49 43 38 37 38 38 44 36 37 42 47 44 35 28 30 31 30 34 40 45 53 62 72 70 64 65 65 66 63 70 76 78 77 72 64 68 62 59 51 50 53 54
47 37 36 38 35 38 39 36 37 42 43 35 25 23 24 28 31 34 37 44 49 52 61 76 77 77 75 70 71 73 78 79 73 63 59 64 57 63 51 50 52 52 47
29 34 36 36 35 39 39 35 35 32 27 23 20 24 29 34 36 38 42 48 51 55 61 70 82 81 80 76 72 69 69 67 65 76 55 64 58 50 52 52 56 47 44
28 30 31 32 33 35 30 30 27 24 22 19 23 24 27 28 25 27 34 43 49 56 61 69 78 84 87 87 85 79 76 78 80 74 66 61 69 56 56 61 53 48 49
27 26 27 31 29 27 26 25 23 21 21 21 21 23 24 24 28 34 40 47 50 56 60 65 75 79 84 83 81 81 83 82 73 70 77 68 52 59 63 57 54 51 51
28 29 27 25 24 23 23 21 21 21 21 22 24 22 27 33 39 44 49 56 60 64 69 68 73 71 76 69 66 73 77 79 72 70 78 66 41 56 57 58 56 58 41
32 29 25 24 25 23 21 20 18 16 14 17 23 29 33 39 46 54 61 66 70 72 77 84 89 89 84 78 71 68 72 75 73 64 59 55 45 55 54 56 44 34 39
31 26 23 22 27 26 22 15 15 16 18 23 29 35 41 44 47 56 64 69 71 72 72 73 74 80 81 81 78 68 63 70 72 67 53 49 51 54 50 43 32 37 45
25 25 26 26 20 21 19 18 20 22 26 30 32 30 35 40 45 52 61 69 74 74 67 64 63 66 69 72 67 64 70 61 66 66 51 55 55 50 42 36 34 43 46
30 32 30 25 25 24 25 28 28 29 28 27 29 32 37 42 44 47 54 61 68 70 70 71 66 64 61 51 52 46 52 56 65 53 47 53 54 39 35 38 40 40 31
Wind_Direction_850mb
163 164 164 165 171 169 176 142 148 157 161 139 123 124 127 176 170 78 16 22 10 341 343 339 343 341 344 354 349 343 340 340 344 349 348 350 353 0 6 6 5 359 357
174 177 169 185 193 193 192 205 203 181 156 126 136 126 131 159 220 210 341 11 1 338 307 297 310 316 322 325 321 321 322 321 326 335 336 340 343 344 345 343 345 348 349
189 186 196 186 192 205 228 224 208 209 252 270 214 175 194 169 199 249 320 318 298 300 298 279 291 291 292 302 304 302 305 307 311 321 330 338 340 332 331 331 332 334 336
195 202 205 204 208 217 238 226 219 232 240 256 265 267 255 262 217 231 290 301 266 273 272 275 276 276 285 290 293 288 291 297 298 304 309 326 327 319 322 322 322 324 327
205 207 215 212 219 227 236 231 228 233 222 224 243 261 266 260 263 270 293 296 262 270 267 271 267 276 282 288 286 286 288 293 293 290 293 305 312 314 314 315 315 317 319
228 224 227 222 223 235 243 238 237 230 221 224 240 251 247 263 282 275 283 279 264 264 263 268 275 275 277 277 276 271 289 293 291 293 292 297 296 299 310 310 312 312 308
229 233 230 227 235 243 244 247 242 236 229 226 226 236 238 254 271 266 266 269 277 274 278 279 282 287 285 270 265 274 294 294 295 297 305 301 305 305 305 302 300 301 302
239 237 226 237 243 244 245 244 244 249 243 232 232 234 230 244 251 256 258 270 271 260 253 269 278 280 281 279 272 286 291 286 289 298 303 305 306 309 307 304 301 299 298
237 235 232 234 243 244 244 245 250 251 249 247 236 239 237 233 230 234 241 252 258 252 262 269 268 276 277 275 277 280 278 283 290 295 300 304 304 309 308 306 302 302 302
237 236 240 239 240 245 249 257 275 257 260 252 246 238 240 259 199 202 240 245 243 249 254 263 277 280 272 268 264 267 275 281 285 294 297 302 306 309 311 306 305 305 304
241 245 244 238 240 241 244 264 266 256 258 247 262 238 236 248 254 263 271 259 234 246 261 265 274 273 265 258 261 263 271 272 286 289 291 299 303 313 318 308 306 303 304
240 246 247 250 249 245 248 257 258 260 261 250 254 228 242 248 246 252 254 261 257 269 249 252 264 267 258 254 259 269 272 285 286 287 293 296 301 312 319 314 307 306 301
240 245 249 251 250 248 250 255 256 260 253 250 244 227 241 244 244 256 270 262 268 268 262 258 263 275 276 270 274 274 281 278 275 280 284 289 297 307 315 319 313 311 305
245 250 254 254 253 253 248 256 253 255 258 256 244 243 248 254 254 260 269 265 277 272 269 271 273 269 266 276 283 284 275 275 275 275 281 288 294 304 311 318 317 314 310
247 249 254 246 236 248 254 262 254 257 256 247 243 246 256 258 261 266 265 270 261 272 278 280 287 284 265 268 279 278 278 279 276 279 281 288 295 300 306 315 314 313 312
243 247 257 250 248 256 243 263 254 249 233 238 247 251 263 271 268 274 272 268 263 274 281 283 285 288 279 274 273 280 281 281 280 280 281 284 289 295 304 307 307 305 312
236 235 243 246 239 244 249 256 246 230 235 238 243 252 257 262 264 268 262 261 267 270 277 282 283 280 278 280 283 275 273 278 278 274 272 275 284 292 294 296 295 301 310
230 214 226 233 235 241 245 244 235 229 232 238 246 248 256 265 264 270 272 272 276 277 280 283 281 281 281 284 283 278 275 275 272 273 273 275 278 283 285 280 287 297 302
208 216 230 236 245 243 235 236 232 234 234 226 236 253 264 268 272 277 275 279 284 283 280 280 282 284 285 287 285 282 279 273 272 269 261 269 278 276 271 273 288 293 287
224 226 234 244 236 229 224 222 220 218 211 228 246 267 278 290 293 291 284 283 289 290 287 283 282 284 285 285 285 285 279 277 278 270 261 254 278 267 267 277 284 278 283
230 235 231 221 209 199 199 202 201 208 230 248 259 280 269 267 273 281 294 290 285 283 284 288 288 290 289 289 287 288 284 280 279 262 263 268 253 265 271 276 280 274 287
213 208 195 187 183 183 186 194 212 227 238 249 260 264 273 275 271 268 269 270 278 286 286 288 289 291 289 294 290 291 288 285 281 278 268 268 267 260 265 276 275 284 277
184 182 178 175 167 182 197 210 224 225 234 254 263 272 279 281 284 285 284 284 282 279 278 284 288 290 292 289 291 287 286 287 283 278 268 259 258 256 270 276 278 275 277
169 171 173 174 178 183 191 202 223 239 262 278 282 285 288 291 294 297 300 298 298 297 297 298 294 291 288 286 281 287 286 287 281 273 267 252 256 265 275 277 273 274 281
167 165 160 176 178 184 203 227 250 267 277 284 286 290 298 304 305 306 308 308 307 309 311 311 309 304 297 295 286 281 276 279 261 262 250 247 261 268 277 273 271 272 282
149 161 170 176 183 208 224 248 260 273 286 291 299 306 310 312 315 318 316 315 315 318 320 316 316 316 315 304 299 284 271 270 256 253 243 250 260 265 269 274 272 275 265